Location: Killam
(52.7910°N, 111.8608°W)
Time: 05:10:02
(UTC+00:00)

A-11 Canister half - Pass Details

Date: 23 February 2026
Orbit: 1524 x 1683 km, 47.3° (Epoch: 13 March)

Event Time Altitude Azimuth Distance (km) Brightness Sun altitude
Rises 23:07:43 0° 233° (SW) 4,743 13.6 13.7°
Reaches altitude 10° 23:10:55 10° 229° (SW) 3,741 14.1 13.3°
Maximum altitude 23:19:51 50° 158° (SSE) 1,880 9.8 12.2°
Drops below altitude 10° 23:28:39 10° 86° (E) 3,693 10.5 11.1°
Sets 23:31:47 0° 82° (E) 4,678 11.0 10.7°
